sat.trackr.live / text

‹ back to catalog

STARLINK-36996

NORAD 68064 · 2026-041AA

PAYLOAD ACTIVE UNKNOWN

§ Identity

Operator
Country
US
Launch date
2026-03-02
Launch site
AFETR
Launch vehicle
Mass (kg)
RCS (m²)

Purposes: comms

External: N2YO · Heavens-Above · Gunter

§ Orbital elements

Epoch: 2026-09-20T04:11:32.853984Z

Period
93.85 min
Inclination
53.1604°
Eccentricity
0.0001218
Mean motion
15.34403423 rev/d
Perigee alt
461.9 km
Apogee alt
463.5 km
Semi-major
6,840.8 km
B*
3.9383e-4
RAAN
220.9166°
Arg perigee
94.1828°
Mean anomaly
265.9313°
Rev number
3,124

§ Raw data

STARLINK-369961 68064U 26041AA  26263.17468581  .00012954  00000+0  39383-3 0  99952 68064  53.1604 220.9166 0001218  94.1828 265.9313 15.34403423 31243

JSON: /api/v1/satellites/68064 · /tle

For live sub-satellite position, see the globe view (requires WebGL).

§ Visibility from observer

Set your observer location to see the next 7 days of passes ≥ 10°. The values pass through the URL so the page stays shareable.

No JS? Fill the form by hand. The geolocation button needs JavaScript.